Weather History for Papa, Hungary

Change the Weather History Date:

Friday, November 22, 2013

  Actual Average Record
Temperature  
Mean Temperature 44 °F -  
Max Temperature 48 °F - - ()
Min Temperature 41 °F - - ()
Degree Days  
Heating Degree Days 20    
Moisture  
Dew Point 43 °F    
Average Humidity 95    
Maximum Humidity 100    
Minimum Humidity 82    
Precipitation  
Precipitation 0.00 in - - ()
Sea Level Pressure  
Sea Level Pressure 29.68 in    
Wind  
Wind Speed 4 mph ()    
Max Wind Speed 7 mph    
Max Gust Speed -    
Visibility 3.9 miles    
Events Rain    
T = Trace of Precipitation, MM = Missing Value Source: Averaged Metar Reports

Daily Weather History Graph

Daily Weather History Graph

Search for Another Location

Airport:

Trip Planner

Search our weather history database for the weather conditions in past years. The results will help you decide how hot, cold, wet, or windy it might be!

Date:

Astronomy

Nov. 22, 2013 Rise Set
Actual Time 7:04 AM CET 4:07 PM CET
Civil Twilight 6:30 AM CET 4:41 PM CET
Nautical Twilight 5:52 AM CET 5:19 PM CET
Astronomical Twilight 5:16 AM CET 5:55 PM CET
Moon 8:27 PM CET (11/22) 10:33 AM CET (11/22)
Length of Visible Light 10h 11m
Length of Day
9h 03m
Waning Gibbous, 80% of the Moon is Illuminated
Nov 22
Waning Gibbous
Nov 25
Last Quarter
Dec 3
New
Dec 9
First Quarter
Dec 17
Full

Hourly Weather History & Observations

Time (CET) Temp. Windchill Dew Point Humidity Pressure Visibility Wind Dir Wind Speed Gust Speed Precip Events Conditions
12:15 AM 42.8 °F 40.2 °F 42.8 °F 100% 29.62 in 2.5 mi South 4.5 mph - N/A   Overcast
12:45 AM 44.6 °F 40.8 °F 42.8 °F 93% 29.62 in 2.5 mi South 6.7 mph - N/A   Overcast
1:15 AM 42.8 °F 40.2 °F 42.8 °F 100% 29.62 in 2.5 mi SSE 4.5 mph - N/A   Overcast
1:45 AM 42.8 °F 38.7 °F 42.8 °F 100% 29.62 in 2.5 mi ESE 6.7 mph - N/A   Overcast
2:15 AM 42.8 °F 38.7 °F 42.8 °F 100% 29.62 in 2.5 mi ESE 6.7 mph - N/A   Overcast
2:45 AM 42.8 °F 40.2 °F 41.0 °F 93% 29.62 in 2.5 mi ESE 4.5 mph - N/A   Overcast
3:15 AM 42.8 °F 38.7 °F 41.0 °F 93% 29.62 in 2.5 mi East 6.7 mph - N/A   Overcast
3:45 AM 41.0 °F 36.5 °F 41.0 °F 100% 29.62 in 2.5 mi East 6.7 mph - N/A   Overcast
4:15 AM 41.0 °F 38.1 °F 41.0 °F 100% 29.62 in 2.5 mi East 4.5 mph - N/A   Overcast
4:45 AM 41.0 °F 38.1 °F 39.2 °F 93% 29.65 in 2.5 mi East 4.5 mph - N/A   Overcast
5:15 AM 41.0 °F - 39.2 °F 93% 29.65 in 2.5 mi NE 2.2 mph - N/A   Overcast
5:20 AM 41.0 °F - 39.2 °F 93% 29.65 in 3.1 mi ENE 2.2 mph - N/A   Overcast
5:45 AM 41.0 °F - 41.0 °F 100% 29.65 in 3.7 mi Calm Calm - N/A   Overcast
6:15 AM 41.0 °F - 41.0 °F 100% 29.65 in 4.3 mi Calm Calm - N/A   Overcast
6:45 AM 41.0 °F - 41.0 °F 100% 29.65 in 4.3 mi North 2.2 mph - N/A   Overcast
7:15 AM 41.0 °F - 41.0 °F 100% 29.65 in 4.3 mi NNE 2.2 mph - N/A   Overcast
7:45 AM 41.0 °F 36.5 °F 41.0 °F 100% 29.65 in 5.0 mi NE 6.7 mph - N/A   Overcast
8:15 AM 41.0 °F 38.1 °F 41.0 °F 100% 29.68 in 5.0 mi East 4.5 mph - N/A   Overcast
8:45 AM 41.0 °F 38.1 °F 41.0 °F 100% 29.68 in 5.0 mi East 4.5 mph - N/A   Overcast
9:15 AM 42.8 °F - 41.0 °F 93% 29.68 in 5.0 mi ENE 2.2 mph - N/A   Overcast
9:45 AM 42.8 °F - 41.0 °F 93% 29.68 in 5.0 mi ENE 2.2 mph - N/A   Overcast
10:15 AM 42.8 °F - 42.8 °F 100% 29.68 in 5.0 mi NNE 2.2 mph - N/A   Overcast
10:44 AM 44.6 °F 42.3 °F 41.0 °F 87% 29.68 in 5.0 mi NE 4.5 mph - N/A   Mostly Cloudy
10:45 AM 44.6 °F 42.3 °F 41.0 °F 87% 29.68 in 5.0 mi NE 4.5 mph - N/A   Mostly Cloudy
11:15 AM 44.6 °F - 42.8 °F 93% 29.68 in 6.2 mi NNE 2.2 mph - N/A   Mostly Cloudy
11:45 AM 44.6 °F 42.3 °F 42.8 °F 93% 29.65 in 6.2 mi NE 4.5 mph - N/A   Mostly Cloudy
12:10 PM 46.4 °F 44.4 °F 42.8 °F 87% 29.65 in 6.2 mi East 4.5 mph - N/A   Mostly Cloudy
12:15 PM 46.4 °F 44.4 °F 44.6 °F 93% 29.65 in 6.2 mi East 4.5 mph - N/A   Mostly Cloudy
12:45 PM 46.4 °F 43.0 °F 42.8 °F 87% 29.65 in 6.2 mi NE 6.7 mph - N/A   Mostly Cloudy
1:15 PM 46.4 °F - 44.6 °F 93% 29.68 in 6.2 mi North 2.2 mph - N/A   Mostly Cloudy
1:45 PM 48.2 °F - 44.6 °F 87% 29.65 in 6.2 mi North 4.5 mph - N/A   Mostly Cloudy
2:15 PM 48.2 °F - 44.6 °F 87% 29.68 in 6.2 mi North 4.5 mph - N/A   Mostly Cloudy
2:45 PM 48.2 °F - 46.4 °F 93% 29.68 in 6.2 mi NNE 2.2 mph - N/A   Mostly Cloudy
3:15 PM 48.2 °F - 44.6 °F 87% 29.68 in 6.2 mi ESE 2.2 mph - N/A   Mostly Cloudy
3:45 PM 48.2 °F - 42.8 °F 82% 29.68 in 5.0 mi East 2.2 mph - N/A   Mostly Cloudy
4:15 PM 46.4 °F - 44.6 °F 93% 29.68 in 5.0 mi ENE 2.2 mph - N/A   Overcast
4:45 PM 46.4 °F - 44.6 °F 93% 29.68 in 3.7 mi ENE 2.2 mph - N/A   Overcast
5:15 PM 44.6 °F - 42.8 °F 93% 29.71 in 3.7 mi North 2.2 mph - N/A   Overcast
5:45 PM 44.6 °F - 42.8 °F 93% 29.71 in 3.7 mi Calm Calm - N/A   Overcast
6:15 PM 44.6 °F 42.3 °F 44.6 °F 100% 29.71 in 3.7 mi NNE 4.5 mph - N/A   Overcast
6:45 PM 46.4 °F 44.4 °F 44.6 °F 93% 29.71 in 3.7 mi ENE 4.5 mph - N/A   Overcast
7:15 PM 46.4 °F - 44.6 °F 93% 29.71 in 3.7 mi NE 2.2 mph - N/A   Overcast
7:45 PM 46.4 °F 44.4 °F 46.4 °F 100% 29.74 in 3.7 mi NNE 4.5 mph - N/A   Overcast
8:07 PM 46.4 °F 44.4 °F 46.4 °F 100% 29.74 in 3.1 mi North 4.5 mph - N/A   Overcast
8:15 PM 46.4 °F 44.4 °F 46.4 °F 100% 29.74 in 3.1 mi North 4.5 mph - N/A   Overcast
8:45 PM 46.4 °F 43.0 °F 44.6 °F 93% 29.74 in 3.1 mi North 6.7 mph - N/A   Overcast
9:15 PM 44.6 °F 42.3 °F 44.6 °F 100% 29.74 in 2.5 mi North 4.5 mph - N/A   Overcast
9:45 PM 46.4 °F 43.0 °F 46.4 °F 100% 29.74 in 2.5 mi North 6.7 mph - N/A   Overcast
10:04 PM 46.4 °F 43.0 °F 46.4 °F 100% 29.74 in 1.9 mi North 6.7 mph - N/A   Overcast
10:15 PM 46.4 °F 44.4 °F 46.4 °F 100% 29.74 in 1.9 mi North 4.5 mph - N/A   Overcast
10:22 PM 46.4 °F 44.4 °F 46.4 °F 100% 29.74 in 1.9 mi North 4.5 mph - N/A Rain Light Rain
10:45 PM 46.4 °F 44.4 °F 46.4 °F 100% 29.74 in 1.9 mi NNE 4.5 mph - N/A Rain Light Rain
11:15 PM 46.4 °F 43.0 °F 46.4 °F 100% 29.74 in 1.2 mi North 6.7 mph - N/A Rain Light Rain
11:45 PM 46.4 °F 44.4 °F 46.4 °F 100% 29.74 in 1.2 mi NNE 4.5 mph - N/A Rain Light Rain